User: anonymous   Login
Location: Trois-Rivi�res
(46.3500°N, 72.5500°W)
Time: 09:07:49
(UTC-05:00)
Language:

SJ-11-01 - Orbit

View from above orbital plane
View from above orbital plane
View from above satellite
View from above satellite

Ground track
Ground track

The orbit data is extracted from the following two-line orbital elements,

1 36088U 09061A   15065.08740753  .00000594  00000-0  13306-3 0  9996
2 36088 098.2534 111.6161 0010482 339.8674 020.2126 14.60173385282957
Epoch (UTC): 06 March 2015 02:05:52
Eccentricity: 0.0010482
inclination: 98.2534°
perigee height: 685 km
apogee height: 700 km
right ascension of ascending node: 111.6161°
argument of perigee: 339.8674°
revolutions per day: 14.60173385
mean anomaly at epoch: 20.2126°
orbit number at epoch: 28295

The dashed part of the orbit path shows where the satellite is in the earth's shadow,  

DLR